Location: Ithaca
(42.4410°N, 76.4970°W)
Time: 18:31:12
(UTC-04:00)

ISS - Visible Passes

Search period start: 24 April 2018 00:00
Search period end: 04 May 2018 00:00
Orbit: 403 x 406 km, 51.6° (Epoch: 25 April)

Date Brightness Start Highest point End Pass type
(mag) Time Alt. Az. Time Alt. Az. Time Alt. Az.
01 May -2.3 05:29:32 10° SSW 05:32:27 31° SE 05:35:23 10° ENE visible
02 May -1.5 04:38:12 10° S 04:40:17 17° SE 04:42:28 10° E visible
03 May -3.7 05:20:50 10° SW 05:24:04 75° SE 05:27:21 10° ENE visible
